Flag for Trinidad and Tobago Weather past 2 weeks in San Fernando, Trinidad and Tobago

Now
86 °F

Scattered showers. Scattered clouds.


Feels Like: 95 °F
Forecast: 78 / 85 °F
Wind: 15 mph from Southeast

Location: Piarco International Airport - Trinidad

Current Time: Jul 6, 2015 at 12:39:37 PM

Latest Report: Jul 6, 2015 at 12:00 PM


Visibility: 4 mi

Pressure: 29.95 "Hg

Humidity: 70%

Dew point: 75 °F

Location of San FernandoLocation

Historic Weather in San Fernando — Graph

°F

San Fernando temperature yesterday

Maximum temperature yesterday: 88 °F (at 1:00 PM)
Minimum temperature yesterday: 75 °F (at 4:00 AM)
Average temperature yesterday: 80 °F

Past Weeks' High & Low Weather Summary

 TemperatureHumidityPressure
High90 °F (Jun 25, 12:00 PM)100% (Jun 22, 5:00 AM)30.07 "Hg (Jun 22, 5:00 AM)
Low75 °F (Jun 23, 3:00 AM)52% (Jun 25, 1:00 PM)29.86 "Hg (Jul 4, 4:00 PM)
Average81 °F82%29.98 "Hg
* Reported Jun 21 12:00 Noon — Jul 6 11:00 AM, San Fernando, Weather by CustomWeather, © 2015

Note: Actual official high and low records may vary slightly from our data, if they occured in-between our weather recording intervals... More about our weather records

Advertising

San Fernando weather history for previous 24 hours

 ConditionsComfort  
Time TempWeatherWind HumidityBarometerVisibility
11:00 AM
Mon, Jul 6
82 °FScattered showers. Scattered clouds.17 mph79%29.98 "HgN/A
10:00 AM81 °FScattered showers. Scattered clouds.12 mph84%29.98 "Hg2 mi
9:00 AM77 °FScattered showers. Partly sunny.21 mph94%29.98 "HgN/A
7:00 AM77 °FLight rain. Partly sunny.3 mph94%29.95 "Hg1 mi
6:00 AM77 °FScattered showers. Broken clouds.9 mph94%29.92 "HgN/A
5:00 AM77 °FPassing clouds.No wind89%29.92 "HgN/A
4:00 AM77 °FPassing clouds.No wind89%29.92 "HgN/A
3:00 AM77 °FPartly cloudy.No wind89%29.92 "HgN/A
2:00 AM77 °FPartly cloudy.No wind94%29.92 "HgN/A
1:00 AM77 °FPassing clouds.No wind94%29.92 "HgN/A
11:00 PM
Sun, Jul 5
77 °FPassing clouds.No wind94%29.95 "HgN/A
10:00 PM79 °FPassing clouds.No wind89%29.95 "HgN/A
9:00 PM79 °FPassing clouds.8 mph84%29.95 "HgN/A
8:00 PM81 °FPassing clouds.8 mph79%29.92 "HgN/A
7:00 PM81 °FPassing clouds.13 mph79%29.92 "HgN/A
6:00 PM81 °FPassing clouds.16 mph79%29.92 "HgN/A
5:00 PM82 °FPassing clouds.14 mph74%29.92 "HgN/A
4:00 PM86 °FSprinkles. Scattered clouds.16 mph66%29.92 "Hg4 mi
3:00 PM86 °FScattered clouds.14 mph66%29.89 "HgN/A
2:00 PM88 °FPassing clouds.14 mph59%29.92 "HgN/A
1:00 PM88 °FPassing clouds.15 mph62%29.92 "HgN/A
12:00 PM86 °FPassing clouds.16 mph66%29.95 "HgN/A
Weather by CustomWeather, © 2015

See weather overviewHow to use our weather pages